Yakima, WA
on Sunday, February 10, 2013

Sunday
Previous Day Next Day
Daily Summary
 ActualAverageRecord
Temperature
Mean Temperature °F 35°F  
Max Temperature 55°F 45°F 62°F (1971)
Min Temperature 26°F 25°F 5°F (1981)
Degree Days
Heating Degree Days 24 30  
Month to date heating degree days 251 305  
Since 1 July heating degree days 3520 4023  
Cooling Degree Days 0 0  
Month to date cooling degree days 0 0  
Year to date cooling degree days 0 0  
Moisture
Dew Point 26°F   
Average Humidity 60    
Maximum Humidity 85    
Minimum Humidity 35    
Precipitation
Precipitation 0.00 in 0.03 in 0.47 in (1961)
Month to date precipitation T 0.29  
Year to date precipitation 0.10 1.43  
Snow
Snow 0.00 in 0.10 in 2.40 in (1973)
Month to date snowfall 0.0 1.1  
Year to date snowfall 1.1 6.4  
Since 1 July snowfall 15.3 19.4  
Snow Depth 0.00 in   
Wind
Wind Speed 5 mph   
Max Wind Speed 12 mph   
Max Gust Speed 13 mph   
Visibility 10 miles   
Events     

Key: T is trace of precipitation, MM is missing value
Source: NWS Daily Summary
Time(PST)TemperatureDew PointHumidity Pressure Visibility Wind DirectionWind SpeedGust SpeedPrecipitationEvents Conditions
12:53 AM 30.0°F 24.1°F 79% 30.26 in 10.0 miles West 3.5 mph - N/A   Clear
1:53 AM 33.1°F 26.1°F 75% 30.27 in 10.0 miles WSW 8.1 mph - N/A   Clear
2:53 AM 34.0°F 26.1°F 73% 30.27 in 10.0 miles West 9.2 mph - N/A   Clear
3:53 AM 30.9°F 24.1°F 76% 30.28 in 10.0 miles West 8.1 mph - N/A   Clear
4:53 AM 26.1°F 21.9°F 84% 30.30 in 10.0 miles West 6.9 mph - N/A   Clear
5:53 AM 27.0°F 21.9°F 81% 30.29 in 10.0 miles West 8.1 mph - N/A   Clear
6:53 AM 27.0°F 21.9°F 81% 30.31 in 10.0 miles West 4.6 mph - N/A   Clear
7:53 AM 28.9°F 23.0°F 78% 30.32 in 10.0 miles West 6.9 mph - N/A   Clear
8:53 AM 37.0°F 27.0°F 67% 30.30 in 10.0 miles WSW 6.9 mph - N/A   Clear
9:53 AM 42.1°F 28.0°F 58% 30.31 in 10.0 miles West 5.8 mph - N/A   Clear
10:53 AM 46.0°F 28.0°F 50% 30.30 in 10.0 miles WSW 3.5 mph - N/A   Clear
11:53 AM 48.9°F 28.9°F 46% 30.29 in 10.0 miles West 4.6 mph - N/A   Clear
12:53 PM 52.0°F 28.0°F 40% 30.26 in 10.0 miles Calm Calm - N/A   Clear
1:53 PM 52.0°F 28.0°F 40% 30.24 in 10.0 miles Calm Calm - N/A   Clear
2:53 PM 55.0°F 28.0°F 35% 30.22 in 10.0 miles SW 3.5 mph - N/A   Clear
3:53 PM 53.1°F 27.0°F 37% 30.22 in 10.0 miles SE 4.6 mph - N/A   Clear
4:53 PM 50.0°F 27.0°F 41% 30.22 in 10.0 miles South 3.5 mph - N/A   Clear
5:53 PM 37.9°F 27.0°F 65% 30.23 in 10.0 miles Calm Calm - N/A   Clear
6:53 PM 34.0°F 26.1°F 73% 30.25 in 10.0 miles West 6.9 mph - N/A   Clear
7:53 PM 35.1°F 27.0°F 72% 30.25 in 10.0 miles WNW 4.6 mph - N/A   Clear
8:53 PM 30.0°F 24.1°F 79% 30.25 in 10.0 miles West 4.6 mph - N/A   Clear
9:53 PM 28.9°F 24.1°F 82% 30.25 in 10.0 miles West 5.8 mph - N/A   Clear
10:53 PM 28.0°F 23.0°F 81% 30.24 in 10.0 miles WNW 5.8 mph - N/A   Clear
11:53 PM 27.0°F 23.0°F 85% 30.23 in 10.0 miles NW 5.8 mph - N/A   Clear
Moon Phase
Feb. 10 Feb. 17 Feb. 25 Mar. 04 Mar. 11
Sunrise:07:13 AM (PST) Moon Rise:07:00 AM (PST)2/10
Sunset:05:20 PM (PST) Moon Set:06:23 PM (PST)2/10

Copyright © 2014 The Weather Underground, Inc.